Change the Weather History Date:

Monday, November 19, 2012

  Actual Average (KOXV) Record (KOXV)
Temperature  
Mean Temperature 52 °F -  
Max Temperature 61 °F 49 °F 120 °F (1997)
Min Temperature 42 °F 28 °F 13 °F (1966)
Degree Days  
Heating Degree Days 12    
Growing Degree Days 2 (Base 50)    
Moisture  
Dew Point 42 °F    
Average Humidity 69    
Maximum Humidity 94    
Minimum Humidity 44    
Precipitation  
Precipitation 0.01 in - - ()
Sea Level Pressure  
Sea Level Pressure 30.09 in    
Wind  
Wind Speed 8 mph (SSE)    
Max Wind Speed 13 mph    
Max Gust Speed 20 mph    
Visibility 10 miles    
Events Rain    
Averages and records for this station are not official NWS values.
T = Trace of Precipitation, MM = Missing Value Source: NWS Daily Summary

Daily Weather History Graph

Daily Weather History Graph

Search for Another Location

Airport or City:

Trip Planner

Search our weather history database for the weather conditions in past years. The results will help you decide how hot, cold, wet, or windy it might be!

Date:

Astronomy

Nov. 19, 2012 Rise Set
Actual Time 7:05 AM CST 4:48 PM CST
Civil Twilight 6:35 AM CST 5:18 PM CST
Nautical Twilight 6:01 AM CST 5:52 PM CST
Astronomical Twilight 5:28 AM CST 6:25 PM CST
Moon 12:07 PM CST (11/19) 11:18 PM CST (11/19)
Length of Visible Light 10h 43m
Length of Day
9h 43m
Waxing Crescent, 41% of the Moon is Illuminated
Nov 19
Waxing Crescent
Nov 20
First Quarter
Nov 28
Full
Dec 6
Last Quarter
Dec 13
New

Hourly Weather History & Observations

Time (CST) Temp. Windchill Dew Point Humidity Pressure Visibility Wind Dir Wind Speed Gust Speed Precip Events Conditions
12:15 AM 52.7 °F - 31.1 °F 44% 30.17 in 10.0 mi SSE 11.5 mph 16.1 mph N/A   Overcast
12:35 AM 52.7 °F - 31.5 °F 44% 30.18 in 10.0 mi SSE 10.4 mph - N/A   Overcast
12:55 AM 51.4 °F - 34.0 °F 51% 30.18 in 10.0 mi South 9.2 mph - N/A Rain Light Rain
1:15 AM 50.0 °F - 36.5 °F 60% 30.19 in 10.0 mi South 6.9 mph - N/A Rain Light Rain
1:35 AM 49.8 °F - 36.9 °F 61% 30.20 in 10.0 mi SSW 6.9 mph - 0.01 in Rain Rain
1:55 AM 47.8 °F - 38.5 °F 70% 30.18 in 10.0 mi SE 6.9 mph - 0.01 in Rain Light Rain
2:15 AM 47.8 °F - 39.0 °F 71% 30.17 in 10.0 mi SE 9.2 mph - N/A   Mostly Cloudy
2:35 AM 47.8 °F - 39.0 °F 71% 30.16 in 10.0 mi SE 9.2 mph - N/A   Mostly Cloudy
2:55 AM 48.2 °F - 38.7 °F 70% 30.15 in 10.0 mi SE 9.2 mph - N/A   Overcast
3:15 AM 48.6 °F - 37.9 °F 67% 30.15 in 10.0 mi SE 11.5 mph - N/A   Overcast
3:35 AM 48.4 °F - 38.3 °F 68% 30.14 in 10.0 mi SE 10.4 mph - N/A   Overcast
3:55 AM 48.6 °F - 38.1 °F 67% 30.14 in 10.0 mi SE 9.2 mph - N/A   Mostly Cloudy
4:15 AM 49.5 °F - 37.8 °F 64% 30.13 in 10.0 mi SE 9.2 mph - N/A   Scattered Clouds
4:35 AM 49.3 °F - 37.8 °F 65% 30.13 in 10.0 mi SE 10.4 mph - N/A   Mostly Cloudy
4:55 AM 48.7 °F - 38.3 °F 67% 30.12 in 10.0 mi SSE 10.4 mph - N/A   Mostly Cloudy
5:15 AM 48.6 °F - 38.7 °F 69% 30.12 in 10.0 mi SE 10.4 mph - N/A   Scattered Clouds
5:35 AM 48.7 °F - 38.7 °F 68% 30.12 in 10.0 mi SSE 8.1 mph - N/A   Mostly Cloudy
5:55 AM 48.6 °F - 38.7 °F 69% 30.12 in 10.0 mi SSE 9.2 mph - N/A   Mostly Cloudy
6:15 AM 48.2 °F - 38.7 °F 70% 30.12 in 10.0 mi SSE 8.1 mph - N/A   Scattered Clouds
6:35 AM 48.2 °F - 38.7 °F 70% 30.12 in 10.0 mi SSE 6.9 mph - N/A   Scattered Clouds
6:55 AM 47.5 °F - 38.3 °F 70% 30.12 in 10.0 mi SSE 6.9 mph - N/A   Scattered Clouds
7:35 AM 46.6 °F - 37.8 °F 71% 30.12 in 10.0 mi SE 5.8 mph - N/A   Clear
7:55 AM 47.5 °F - 38.3 °F 70% 30.11 in 10.0 mi SSE 8.1 mph - N/A   Clear
8:15 AM 49.3 °F - 38.8 °F 67% 30.12 in 10.0 mi SSE 8.1 mph - N/A   Clear
8:35 AM 50.4 °F - 39.2 °F 66% 30.12 in 10.0 mi SSE 6.9 mph - N/A   Clear
8:55 AM 51.3 °F - 39.6 °F 64% 30.12 in 10.0 mi SSE 8.1 mph - N/A   Clear
9:15 AM 52.7 °F - 40.1 °F 62% 30.13 in 10.0 mi South 11.5 mph - N/A   Clear
9:35 AM 52.2 °F - 40.6 °F 65% 30.12 in 10.0 mi South 8.1 mph - N/A   Scattered Clouds
9:55 AM 54.1 °F - 42.3 °F 64% 30.12 in 10.0 mi South 12.7 mph 16.1 mph N/A   Scattered Clouds
10:15 AM 55.4 °F - 43.0 °F 63% 30.11 in 10.0 mi South 12.7 mph - N/A   Clear
10:35 AM 55.6 °F - 43.9 °F 65% 30.11 in 10.0 mi South 11.5 mph - N/A   Clear
10:55 AM 56.7 °F - 44.1 °F 63% 30.11 in 10.0 mi South 12.7 mph 19.6 mph N/A   Clear
11:15 AM 57.4 °F - 45.0 °F 63% 30.10 in 10.0 mi South 10.4 mph - N/A   Clear
11:35 AM 58.5 °F - 45.0 °F 61% 30.09 in 10.0 mi South 12.7 mph 17.3 mph N/A   Clear
11:55 AM 59.0 °F - 45.3 °F 60% 30.08 in 10.0 mi South 10.4 mph - N/A   Clear
12:15 PM 59.5 °F - 45.3 °F 59% 30.07 in 10.0 mi SSW 10.4 mph - N/A   Clear
12:35 PM 59.9 °F - 45.3 °F 59% 30.06 in 10.0 mi South 12.7 mph 17.3 mph N/A   Clear
12:55 PM 60.1 °F - 45.3 °F 58% 30.06 in 10.0 mi South 11.5 mph 16.1 mph N/A   Clear
1:15 PM 61.0 °F - 45.5 °F 57% 30.06 in 10.0 mi SSW 10.4 mph - N/A   Clear
1:35 PM 61.2 °F - 45.1 °F 56% 30.05 in 10.0 mi SSW 10.4 mph 16.1 mph N/A   Clear
1:55 PM 61.5 °F - 45.1 °F 55% 30.05 in 10.0 mi SW 10.4 mph 18.4 mph N/A   Clear
2:15 PM 61.7 °F - 45.3 °F 55% 30.04 in 10.0 mi SSW 10.4 mph 16.1 mph N/A   Scattered Clouds
2:35 PM 61.7 °F - 45.3 °F 55% 30.04 in 10.0 mi South 9.2 mph - N/A   Scattered Clouds
2:55 PM 61.7 °F - 45.5 °F 55% 30.04 in 10.0 mi SSW 9.2 mph - N/A   Clear
3:15 PM 61.5 °F - 45.1 °F 55% 30.04 in 10.0 mi SSW 9.2 mph - N/A   Clear
3:35 PM 61.7 °F - 45.5 °F 55% 30.04 in 10.0 mi SSW 8.1 mph - N/A   Clear
3:55 PM 60.8 °F - 45.7 °F 57% 30.05 in 10.0 mi South 4.6 mph - N/A   Clear
4:15 PM 59.4 °F - 45.5 °F 60% 30.05 in 10.0 mi South 5.8 mph - N/A   Clear
4:35 PM 57.2 °F - 44.8 °F 63% 30.06 in 10.0 mi South 4.6 mph - N/A   Clear
4:55 PM 56.1 °F - 44.6 °F 65% 30.05 in 10.0 mi SSE 4.6 mph - N/A   Clear
5:15 PM 54.9 °F - 44.6 °F 68% 30.05 in 10.0 mi SSE 4.6 mph - N/A   Clear
5:35 PM 54.7 °F - 44.6 °F 69% 30.06 in 10.0 mi SSE 4.6 mph - N/A   Clear
5:55 PM 53.6 °F - 44.1 °F 70% 30.06 in 10.0 mi SE 4.6 mph - N/A   Clear
6:15 PM 49.5 °F - 43.0 °F 78% 30.06 in 10.0 mi SE 3.5 mph - N/A   Clear
6:35 PM 51.4 °F - 43.7 °F 75% 30.06 in 10.0 mi SSE 5.8 mph - N/A   Clear
6:55 PM 51.3 °F - 44.4 °F 77% 30.06 in 10.0 mi SSE 6.9 mph - N/A   Clear
7:15 PM 50.9 °F - 43.9 °F 77% 30.06 in 10.0 mi South 5.8 mph - N/A   Clear
7:35 PM 50.4 °F - 43.9 °F 78% 30.06 in 10.0 mi SSE 4.6 mph - N/A   Clear
7:55 PM 48.7 °F - 42.8 °F 80% 30.06 in 10.0 mi Calm Calm - N/A   Clear
8:15 PM 47.8 °F - 43.7 °F 86% 30.06 in 10.0 mi ESE 3.5 mph - N/A   Clear
8:35 PM 48.0 °F - 44.8 °F 89% 30.06 in 10.0 mi SE 3.5 mph - N/A   Clear
8:55 PM 48.4 °F - 45.0 °F 88% 30.06 in 10.0 mi South 4.6 mph - N/A   Clear
9:15 PM 46.4 °F - 42.1 °F 85% 30.06 in 10.0 mi Calm Calm - N/A   Clear
9:35 PM 45.7 °F - 42.6 °F 89% 30.06 in 7.0 mi Calm Calm - N/A   Clear
9:55 PM 44.6 °F - 42.1 °F 91% 30.06 in 7.0 mi Calm Calm - N/A   Clear
10:15 PM 45.0 °F 43.5 °F 43.0 °F 93% 30.06 in 7.0 mi South 3.5 mph - N/A   Clear
10:35 PM 46.6 °F - 44.2 °F 92% 30.06 in 7.0 mi SSW 3.5 mph - N/A   Clear
10:55 PM 46.0 °F 44.8 °F 43.9 °F 92% 30.06 in 7.0 mi South 3.5 mph - N/A   Clear
11:15 PM 45.3 °F - 43.2 °F 92% 30.05 in 5.0 mi Calm Calm - N/A   Clear
11:35 PM 45.1 °F - 43.3 °F 93% 30.05 in 4.0 mi Calm Calm - N/A   Clear
11:55 PM 42.3 °F - 40.6 °F 94% 30.05 in 2.0 mi Calm Calm - N/A   Clear